Find Starlink 37829

NORAD ID: 100405 Int'l Des: 2026-192 Owner: SPXS Country: US Constellation: starlink operational

当前视图

正在加载3D地球...

About Starlink 37829

Starlink 37829 (NORAD 100405) is a starlink constellation satellite launched Aug 21, 2026 by SPXS of US. with a mass of 575.00 kg.

即将过境

Passes for default location (London). Set your location on the main map for personalized predictions.

高度历史

Loading altitude history...

两行轨道根数

1 A0405U 26192B 26263.94743873 .00023816 00000-0 43457-3 0 9999
2 A0405 53.1593 303.5507 0001282 98.3094 261.8061 15.49334909 5989
Epoch: Sep 20, 2026 • Age: 9 hours

当前状态

高度 419.5 km
远地点 / 近地点 N/A
速度 7.66 km/s
星下点 27.10°N, 158.78°W
发射日期 Aug 21, 2026
运行时间 30 days
类型 internet

技术详情

分类 Payload
质量 575.00 kg
干质量 530.00 kg
长度 0.30 m
跨度 29.00 m
形状 ? Box + pan
制造商 SPXS
平台类型 Starlink V2MO
阶段状态 In Orbit
所有者/国家 SPXS/US

Most Searched